Welcome to the New NWS' Forecast!
Most changes are behind the scenes, but click here for differences you might notice.
Latest weather observations around

Whidbey Island, Naval Air Station (KNUW)

Using English Units (Switch to International System of Units)
Date/ Time (PDT) Wind (mph) Vis. (mi) Weather Sky Cond. Temp (°F) Rel. Humidity Wind Chill (°F) Heat Index (°F) Pressure Precip. (in)
Air Dwpt 6 hour Altimeter (inHg) Sea level (inHg) 1 hr 3 hr 6 hr
Max Min
Jul 18 11:56 WNW 6 10 Partly Cloudy FEW020 SCT035 62 54     75%     30.22 30.22      
Jul 18 10:56 WNW 7 10 Mostly Cloudy SCT019 BKN030 63 53     70%     30.22 30.22      
Jul 18 09:56 W 6 10 Mostly Cloudy FEW009 BKN019 62 53     72%     30.22 30.21      
Jul 18 08:56 W 5 9 Mostly Cloudy SCT005 BKN018 61 54     78%     30.22 30.21      
Jul 18 08:43 W 5 8 Mostly Cloudy SCT005 BKN018 60 53     78%     30.21        
Jul 18 08:03 WSW 5 7 Mostly Cloudy BKN005 BKN020 59 53     81%     30.21        
Jul 18 07:56 WNW 6 8 Mostly Cloudy SCT005 BKN020 59 53     81%     30.21 30.2      
Jul 18 07:22 WSW 3 8 Cloudy FEW005 OVC017 59 54     83%     30.2        
Jul 18 06:56 W 5 8 Mostly Cloudy SCT012 BKN017 59 53     81%     30.19 30.19      
Jul 18 05:56 Calm 8 Cloudy OVC014 58 53     84%     30.17 30.17      
Jul 18 04:56 WSW 6 10 Clear   58 53     84%     30.16 30.15      
Jul 18 03:56 W 3 10 Cloudy SCT007 OVC013 59 54     83%     30.15 30.14      
Jul 18 02:56 SW 7 10 Cloudy SCT007 OVC016 59 54     83%     30.14 30.13      
Jul 18 02:20 SW 10 10 Mostly Cloudy FEW008 BKN016 59 54     83%     30.13        
Jul 18 01:56 SW 9 10 Partly Cloudy FEW010 SCT025 58 53     84%     30.12 30.12      
Jul 18 00:56 SSW 9 10 Mostly Clear FEW010 FEW030 59 53     81%     30.11        
Jul 17 23:56 SW 7 10 Mostly Clear FEW250 59 53     81%     30.09 30.09      
Jul 17 22:56 SW 8 10 Mostly Clear FEW250 60 53     78%     30.09        
Jul 17 21:56 SSW 7 10 Mostly Clear FEW080 FEW250 60 53     78%     30.07 30.06      
Jul 17 20:56 WSW 10 10 Partly Cloudy FEW050 FEW120 SCT250 61 53     75%     30.04 30.04      
Jul 17 19:56 SW 7 10 Mostly Clear FEW050 FEW100 62 54     75%     30.05        
Jul 17 18:56 WSW 8 10 Partly Cloudy FEW060 FEW110 SCT250 64 54     70%     30.04        
Jul 17 17:56 WSW 8 10 Partly Cloudy FEW045 FEW100 SCT250 66 54     65%     30.05        
Jul 17 16:56 WSW 9 10 Mostly Clear FEW050 FEW250 66 54     65%     30.05        
Jul 17 15:56 W 10 10 Partly Cloudy FEW035 FEW120 SCT200 SCT250 67 53     61%     30.06        
Jul 17 14:56 W 8 10 Partly Cloudy FEW110 FEW190 SCT250 67 52     59%     30.07        
Jul 17 13:56 W 10 10 Partly Cloudy FEW120 FEW180 SCT250 65 52     63%     30.07        
Jul 17 12:56 W 7 10 Mostly Clear FEW250 64 52     65%     30.07 30.07      
Jul 17 11:56 WSW 11 10 Clear CLR 65 52     63%     30.07 30.06      
Jul 17 10:56 WSW 11 10 Partly Cloudy SCT250 69 52     54%     30.07 30.06      
Jul 17 09:56 WSW 10 10 Partly Cloudy SCT250 66 52     61%     30.06 30.06      
Jul 17 08:56 WSW 10 10 Partly Cloudy FEW010 SCT250 62 52     70%     30.06 30.06      
Jul 17 07:56 WSW 5 10 Partly Cloudy FEW009 SCT250 62 53     72%     30.05 30.05      
Jul 17 06:56 SW 6 10 Partly Cloudy FEW006 FEW040 SCT250 59 53     81%     30.05 30.04      
Jul 17 05:56 SW 7 9 Partly Cloudy FEW006 FEW040 SCT250 58 52     81%     30.04 30.03      
Jul 17 04:56 SSW 5 10 Mostly Clear FEW040 FEW250 58 52     81%     30.04 30.03      
Jul 17 03:56 SSW 3 10 Clear CLR 59 52     78%     30.03 30.02      
Jul 17 02:56 SSW 8 10 Clear CLR 60 51     72%     30.02 30.02      
Jul 17 01:56 SSE 7 10 Clear   60 49     67%     30.02 30.01      
Jul 17 00:56 SSE 6 10 Clear CLR 61 49     64%     30.02 30.01      
Jul 16 23:56 SE 3 10 Clear CLR 60 49     67%     30.02 30.01      
Jul 16 22:56 Calm 10 Clear CLR 62 50     65%     30.01 30.01      
Jul 16 21:56 Calm 10 Mostly Clear FEW040 62 50     65%     30.01 30.01      
Jul 16 20:56 WSW 3 10 Mostly Clear FEW250 62 50     65%     30 30      
Jul 16 19:56 W 3 10 Mostly Clear FEW250 65 51     61%     30 30      
Jul 16 18:56 W 6 10 Mostly Clear FEW250 67 52     59%     30 30      
Jul 16 17:56 W 7 10 Clear CLR 71 51     49%   70 30.01 30.01      
Jul 16 16:56 WNW 7 10 Mostly Clear FEW040 FEW250 71 52     51%   70 30.03 30.02      
Jul 16 15:56 W 7 10 Clear CLR 72 51     48%   71 30.04 30.04      
Jul 16 14:56 W 7 10 Clear CLR 74 51     45%   73 30.05 30.05      
Jul 16 13:56 W 7 10 Clear CLR 73 53     50%   72 30.06 30.06      
Jul 16 12:56 W 8 10 Clear CLR 71 53     53%   70 30.07 30.06      
Jul 16 11:56 W 9 10 Mostly Clear FEW250 71 52     51%   70 30.08 30.07      
Jul 16 10:56 W 6 10 Clear CLR 66 52     61%     30.08 30.08      
Jul 16 09:56 W 6 10 Mostly Clear FEW250 64 53     67%     30.09 30.08      
Jul 16 08:56 W 7 10 Mostly Clear FEW250 63 52     67%     30.08 30.08      
Jul 16 07:56 W 5 10 Mostly Clear FEW250 61 52     72%     30.07 30.07      
Jul 16 06:56 NW 3 10 Mostly Clear FEW250 58 52     81%     30.07 30.06      
Jul 16 05:56 Calm 10 Mostly Clear FEW250 53 48     83%     30.06 30.05      
Jul 16 04:56 Calm 10 Clear CLR 54 48     80%     30.05 30.05      
Jul 16 03:56 Calm 10 Clear CLR 56 49     77%     30.04 30.04      
Jul 16 02:56 Calm 10 Clear CLR 56 47     72%     30.03 30.03      
Jul 16 01:56 SSE 3 10 Clear CLR 60 47     62%     30.02 30.02      
Jul 16 00:56 Calm 10 Clear CLR 59 49     69%     30.02 30.02      
Jul 15 23:56 E 3 10 Clear CLR 61 49     64%     30.02 30.02      
Jul 15 22:56 Calm 10 Mostly Clear FEW250 62 50     65%     30.02 30.01      
Jul 15 21:56 Calm 10 Mostly Clear FEW250 63 50     63%     30.01 30.01      
Jul 15 20:56 Calm 10 Mostly Clear FEW250 62 52     70%     30.01 30.01      
Jul 15 19:56 W 6 10 Mostly Clear FEW250 66 53     63%     30 30      
Jul 15 18:56 NW 3 10 Mostly Clear FEW250 73 53     50%   72 30 30      
Jul 15 17:56 W 5 10 Mostly Clear FEW250 76 51     42%   75 30 30      
Jul 15 16:56 W 6 10 Mostly Clear FEW250 77 51     40%   76 30.01 30.01      
Jul 15 15:56 W 7 10 Mostly Clear FEW250 77 51     40%   76 30.03 30.02      
Jul 15 14:56 W 7 10 Mostly Clear FEW250 75 52     45%   74 30.04 30.03      
Jul 15 13:56 W 8 10 Mostly Clear FEW250 74 51     45%   73 30.05 30.05      
May 15 05:56 SW 10 1 Fog/Mist SKC BKN005 OVC120 53 50     89%     29.95        
May 15 03:40 SW 6 1.5 Fog/Mist SCT004 SCT120 53 50     89%     29.93        
May 14 10:56 W 7 10 Partly Cloudy SCT250 64 53     67%     30 30      
May 13 15:56 W 5 10 Partly Cloudy SCT250 70 54     57%       29.96      
May 13 10:56 W 9 10 Mostly Clear FEW250 65 53     65%     30.02 30.01      
May 13 09:56 WNW 5 10 Clear CLR 63 53     70%     30.02 30.02      
May 12 16:56 WSW 7 10 Mostly Clear FEW250 64 51     63%       30.06      
May 11 19:56 W 3 10 Mostly Clear FEW035 56 50     80%     30.23 30.23      
May 11 06:56   10 Mostly Cloudy BKN026 BKN200 53 47     80%     30.28 30.28 0    
Jun 12 05:56 SW 10 8 Cloudy BKN009 OVC055 55 50     83%     30.03        
Jun 11 19:56 WSW 7 10 Partly Cloudy FEW055 FEW120 SCT170 SCT250 59 47     64%     30.03 30.03      
Jun 11 18:56 W 9 10 Partly Cloudy FEW050 FEW110 SCT210 SCT250 59 48     67%     30.02 30.02      
Jun 10 18:56 WSW 3 10 Mostly Cloudy FEW050 SCT080 SCT120 BKN240 57 47     69%     29.92        
Jun 10 16:56 WSW 11 10 Mostly Cloudy FEW030 SCT045 SCT070 SCT210 BKN250 58 47     67%     29.91        
Jun 10 14:56 W 9 10 Mostly Cloudy FEW026 SCT042 SCT110 BKN220 BKN250 59 47     64%     29.91 29.91      
Jun 09 23:56 SE 7 10 Mostly Cloudy FEW032 BKN070 BKN090 54 45     72%     29.88 29.88      
Jun 08 18:56 ESE 5 10 Light Rain SCT032 BKN045 BKN060 OVC140 56 49     77%       29.94 0    
Jun 07 21:56 3 10 Cloudy FEW050 SCT090 BKN110 OVC220 60 42     51%              
Jun 07 11:56 WNW 7 10 Mostly Cloudy FEW050 SCT120 BKN190 63 47     56%     29.79 29.79      
Jun 07 05:56 Calm 10 Cloudy FEW120 SCT160 OVC250 52 43     71%     29.9